Location: Borz?cin
(51.1714°N, 19.6030°E)
Time: 17:28:53
(UTC+00:00)

KORONAS-FOTON - Pass Details

Date: 19 May 2025
Orbit: 447 x 464 km, 82.4° (Epoch: 20 June)

Event Time Altitude Azimuth Distance (km) Brightness Sun altitude
Exits shadow 21:49:34 50° 137° (SE) 593 3.7 -18.1°
Maximum altitude 21:50:07 58° 97° (E) 542 3.7 -18.1°
Drops below altitude 10° 21:53:33 10° 18° (NNE) 1,605 7.2 -18.2°
Sets 21:55:39 0° 14° (NNE) 2,481 8.5 -18.2°
